Location: Zlin
(49.2330°N, 17.6670°E)
Time: 16:51:16
(UTC+01:00)

BlueWalker 3 - Visible Passes

Search period start: 24 February 2024 00:00
Search period end: 05 March 2024 00:00
Orbit: 486 x 500 km, 53.2° (Epoch: 23 February)

Date Brightness Start Highest point End Pass type
(mag) Time Alt. Az. Time Alt. Az. Time Alt. Az.
24 Feb 2.4 18:08:02 10° W 18:11:45 54° NNW 18:15:18 11° ENE visible
24 Feb 2.9 19:46:47 10° WNW 19:49:46 41° NNW 19:49:46 41° NNW visible
25 Feb 2.4 19:22:58 10° WNW 19:26:39 46° N 19:26:57 45° NNE visible
25 Feb 5.3 21:01:21 10° WNW 21:01:26 11° WNW 21:01:26 11° WNW visible
26 Feb 2.5 18:59:08 10° WNW 19:02:48 46° N 19:04:07 31° ENE visible
26 Feb 4.6 20:37:31 10° WNW 20:38:36 18° WNW 20:38:36 18° WNW visible
27 Feb 2.5 18:35:16 10° WNW 18:38:55 46° N 18:41:16 20° ENE visible
27 Feb 3.7 20:13:39 10° WNW 20:15:45 31° WNW 20:15:45 31° WNW visible
28 Feb 2.5 18:11:22 10° WNW 18:15:03 45° N 18:18:26 12° E visible
28 Feb 2.4 19:49:46 10° WNW 19:52:54 59° WNW 19:52:54 59° WNW visible
29 Feb 1.7 19:25:52 10° WNW 19:29:40 86° SSW 19:30:05 69° SE visible
01 Mar 1.8 19:01:56 10° WNW 19:05:44 88° SSW 19:07:18 34° ESE visible
01 Mar 4.7 20:40:46 10° W 20:41:47 15° W 20:41:47 15° W visible
02 Mar 1.8 18:37:59 10° WNW 18:41:47 89° SW 18:44:33 18° ESE visible
02 Mar 4.1 20:16:47 10° W 20:19:02 20° WSW 20:19:02 20° WSW visible
03 Mar 1.9 18:14:01 10° WNW 18:17:49 89° NNE 18:21:36 10° ESE visible
03 Mar 3.8 19:52:47 10° W 19:55:43 22° SW 19:56:21 21° SSW visible
04 Mar 3.9 19:28:46 10° W 19:31:45 22° SW 19:33:45 15° S visible
